[TLELIST] Archives

 

[list_settings.list_name] Current TLEs

August 26th 2011 PST

HST 1 20580U 90037B 11238.24651505 .00000660 00000-0 37169-4 0 8257 2 20580 028.4708 278.7717 0003750 145.7465 214.3434 15.01465535970194 ISS (ZARYA) 1 25544U 98067A 11238.29506244 .00007282 00000-0 92436-4 0 9523 2 25544 051.6387 167.8837 0013064 118.1389 019.6788 15.60538331731855 CXO 1 25867U 99040B 11237.75000000 -.00000350 00000-0 00000+0 0 6362 2 25867 069.8984 026.8570 8659619 276.9918 359.9729 00.37804861 8030 ____________________________________________________________________ These 2-Line ...Continue Reading

[list_settings.list_name] Current TLEs

August 25th 2011 PST

HST 1 20580U 90037B 11237.24945397 .00000641 00000-0 35741-4 0 8243 2 20580 028.4708 285.2882 0003743 134.0987 225.9920 15.01464383970044 ISS (ZARYA) 1 25544U 98067A 11237.45713742 .00007243 00000-0 92016-4 0 9489 2 25544 051.6396 172.1030 0013195 115.4519 351.8278 15.60523271731727 CXO 1 25867U 99040B 11237.75000000 -.00000350 00000-0 00000+0 0 6362 2 25867 069.8984 026.8570 8659619 276.9918 359.9729 00.37804861 8030 ____________________________________________________________________ These 2-Line ...Continue Reading

[list_settings.list_name] Current TLEs

August 24th 2011 PST

HST 1 20580U 90037B 11235.25532874 .00000628 00000-0 34718-4 0 8231 2 20580 028.4715 298.3149 0003720 115.2362 244.8609 15.01462435969741 ISS (ZARYA) 1 25544U 98067A 11236.18337133 .00007477 00000-0 94851-4 0 9426 2 25544 051.6391 178.5127 0012998 111.3883 035.2991 15.60506310731526 CXO 1 25867U 99040B 11237.75000000 -.00000350 00000-0 00000+0 0 6351 2 25867 069.8984 026.8570 8659620 276.9918 359.9729 00.37804861 8032 ____________________________________________________________________ These 2-Line ...Continue Reading

[list_settings.list_name] Current TLEs

August 23rd 2011 PST

HST 1 20580U 90037B 11235.25532874 .00000628 00000-0 34718-4 0 8231 2 20580 028.4715 298.3149 0003720 115.2362 244.8609 15.01462435969741 ISS (ZARYA) 1 25544U 98067A 11235.47129753 .00007738 00000-0 97984-4 0 9390 2 25544 051.6403 182.0967 0012965 108.3799 355.3552 15.60496397731418 CXO 1 25867U 99040B 11235.12500000 -.00000529 00000-0 00000+0 0 6342 2 25867 069.8819 027.0745 8656113 276.9830 002.5423 00.37798085 8024 ____________________________________________________________________ These 2-Line ...Continue Reading

[list_settings.list_name] Current TLEs

August 22nd 2011 PST

HST 1 20580U 90037B 11234.25826472 .00000615 00000-0 33790-4 0 8224 2 20580 028.4713 304.8260 0003691 103.9214 256.1778 15.01461479969596 ISS (ZARYA) 1 25544U 98067A 11234.38951787 .00007700 00000-0 97591-4 0 9325 2 25544 051.6404 187.5423 0013013 104.3596 038.1479 15.60478231731244 CXO 1 25867U 99040B 11235.12500000 -.00000529 00000-0 00000+0 0 6342 2 25867 069.8819 027.0745 8656113 276.9830 002.5423 00.37798085 8024 ____________________________________________________________________ These 2-Line ...Continue Reading

[list_settings.list_name] Current TLEs

August 21st 2011 PST

HST 1 20580U 90037B 11232.66296096 .00000655 00000-0 36830-4 0 8211 2 20580 028.4713 315.2485 0003643 088.7480 271.3525 15.01460190969355 ISS (ZARYA) 1 25544U 98067A 11233.48549928 .00007909 00000-0 10012-3 0 9283 2 25544 051.6408 192.0921 0013002 101.1936 359.4312 15.60464328731105 CXO 1 25867U 99040B 11235.12500000 -.00000529 00000-0 00000+0 0 6342 2 25867 069.8819 027.0745 8656113 276.9830 002.5423 00.37798085 8024 ____________________________________________________________________ These 2-Line ...Continue Reading

[list_settings.list_name] Current TLEs

August 20th 2011 PST

HST 1 20580U 90037B 11231.66589553 .00000680 00000-0 38729-4 0 8209 2 20580 028.4714 321.7639 0003542 079.0246 281.0764 15.01459391969208 ISS (ZARYA) 1 25544U 98067A 11232.40353973 .00006612 00000-0 84822-4 0 9211 2 25544 051.6402 197.5377 0012945 097.1493 041.3648 15.60444279730933 CXO 1 25867U 99040B 11232.45833333 -.00000621 00000-0 00000+0 0 6335 2 25867 069.8693 027.2323 8655605 277.0043 359.4322 00.37800276 8018 ____________________________________________________________________ These 2-Line ...Continue Reading

[list_settings.list_name] Current TLEs

August 19th 2011 PST

HST 1 20580U 90037B 11230.66882823 .00000672 00000-0 38081-4 0 8194 2 20580 028.4717 328.2792 0003544 068.5754 291.5186 15.01458374969059 ISS (ZARYA) 1 25544U 98067A 11231.49978130 .00005400 00000-0 70483-4 0 9163 2 25544 051.6384 202.0862 0013000 093.4996 004.6962 15.60429982730792 CXO 1 25867U 99040B 11232.45833333 -.00000621 00000-0 00000+0 0 6335 2 25867 069.8693 027.2323 8655605 277.0043 359.4322 00.37800276 8018 ____________________________________________________________________ These 2-Line ...Continue Reading

[list_settings.list_name] Current TLEs

August 18th 2011 PST

HST 1 20580U 90037B 11228.54174769 .00000669 00000-0 37863-4 0 8183 2 20580 028.4721 342.1720 0003387 048.1642 311.9135 15.01456292968737 ISS (ZARYA) 1 25544U 98067A 11230.29066935 .00006021 00000-0 77905-4 0 9145 2 25544 051.6382 208.1676 0013021 089.0427 052.4091 15.60413541730601 CXO 1 25867U 99040B 11229.83333333 -.00000646 00000-0 00000+0 0 6313 2 25867 069.8497 027.4108 8657181 277.0021 002.0592 00.37805671 8003 ____________________________________________________________________ These 2-Line ...Continue Reading

[list_settings.list_name] Current TLEs

August 17th 2011 PST

HST 1 20580U 90037B 11228.54174769 .00000669 00000-0 37863-4 0 8183 2 20580 028.4721 342.1720 0003387 048.1642 311.9135 15.01456292968737 ISS (ZARYA) 1 25544U 98067A 11229.12946068 .00005271 00000-0 69046-4 0 9085 2 25544 051.6389 214.0130 0013013 085.8740 008.1799 15.60395816730429 CXO 1 25867U 99040B 11229.83333333 -.00000646 00000-0 00000+0 0 6313 2 25867 069.8497 027.4108 8657181 277.0021 002.0592 00.37805671 8003 ____________________________________________________________________ These 2-Line ...Continue Reading
  • This mailing list is a public mailing list - anyone may join or leave, at any time.
  • This mailing list is announce-only.

International Space Station (ISS) / Hubble Space Telescope (HST) / Chandra X-Ray Observatory Orbital Data via EMAIL

Privacy Policy:

Private list